Regional Weather Roundup
Issued by NWS

Home | Current Version | Previous Version | Graphics & Text | Print | Product List | Glossary On
Versions: 1 2 3 4 5 6 7 8 9 10 11 12 13 14 15 16 17 18 19 20 21 22 23 24 25 26 27 28 29 30 31 32 33 34 35 36 37 38 39 40 41 42 43 44 45 46 47 48 49 50
000
ASUS43 KMPX 030010
RWRMN
WEATHER ROUNDUP FOR MINNESOTA
NATIONAL WEATHER SERVICE TWIN CITIES/CHANHASSEN MN
700 PM CDT SAT MAY 02 2015


NOTE: "FAIR" INDICATES FEW OR NO CLOUDS BELOW 12,000 FEET WITH NO
SIGNIFICANT WEATHER AND/OR OBSTRUCTIONS TO VISIBILITY. N/A MEANS
CURRENT SKY AND/OR WEATHER CONDITIONS ARE NOT AVAILABLE.

MNZ060>063-068>070-030100-
   Twin Cities Metro

CITY           SKY/WX    TMP DP  RH WIND       PRES   REMARKS
TWIN CITIES    MOSUNNY   78  43  28 S6        29.74F
6HR MIN TEMP:  75; 6HR MAX TEMP:  80;

ST PAUL        SUNNY     77  41  27 S7        29.74F
CRYSTAL        SUNNY     79  41  25 SW9       29.72F
BLAINE         SUNNY     79  43  27 S13       29.74F
LAKEVILLE      SUNNY     75  45  33 S3        29.75F
EDEN PRAIRIE   SUNNY     78  44  29 S8        29.73F
6HR MIN TEMP:  76; 6HR MAX TEMP:  81;

SOUTH ST PAUL  SUNNY     78  41  26 S8        29.74F
LAKE ELMO      FAIR      77  43  29 S12       29.76F
$$
MNZ001>005-007-008-013>017-022>024-027-028-030100-
   Northwest Minnesota

CITY           SKY/WX    TMP DP  RH WIND       PRES   REMARKS
BEMIDJI        CLOUDY    74  34  23 S10G18    29.66S
HALLOCK        CLOUDY    73  41  31 S15       29.55F
ROSEAU         CLOUDY    73  41  31 SW24G30   29.59F
WARROAD        CLOUDY    70  46  43 SW6       29.61F
THIEF RVR FALL CLOUDY    66  46  48 S16G24    29.63F
CROOKSTON      LGT RAIN  68  48  49 S15       29.61F
DETROIT LAKES  CLOUDY    75  36  23 S8        29.66R
MOORHEAD       RAIN      66  52  59 NW24G40   29.69R
PARK RAPIDS    PTSUNNY   76  34  21 S14       29.66F
MAHNOMEN       LGT RAIN  74  37  25 W18G29    29.70R
$$
MNZ006-009>011-018-025>026-030100-
   North Central Minnesota

CITY           SKY/WX    TMP DP  RH WIND       PRES   REMARKS
BAUDETTE       LGT RAIN  68  44  42 W10       29.64R
FLAG ISLAND    CLOUDY    59  52  77 SE5       29.60F
INTL FALLS     PTSUNNY   76  35  22 SW14G28   29.63R
6HR MIN TEMP:  76; 6HR MAX TEMP:  82;

WASKISH        PTSUNNY   77  37  24 S3G18     29.63F
BIG FORK       PTSUNNY   75  36  23 S17       29.67S
LONGVILLE      MOSUNNY   75  34  22 S10       29.69F
GRAND RAPIDS   MOSUNNY   73  36  25 S13G22    29.70S
CRANE LAKE     PTSUNNY   77  30  18 S8        29.66F
ORR            CLOUDY    77  28  16 SW14G23   29.64S
COOK           CLOUDY    75  36  23 S12G18    29.69R
WALKER         FAIR      75  36  24 S9G17     29.66F
$$
MNZ012-019>021-037-030100-
   Northeast Minnesota

CITY           SKY/WX    TMP DP  RH WIND       PRES   REMARKS
DULUTH         MOSUNNY   69  42  37 SE7       29.74F
6HR MIN TEMP:  69; 6HR MAX TEMP:  78;

ELY            PTSUNNY   73  30  20 S10       29.70S
HIBBING        MOSUNNY   75  30  19 SW14G20   29.70F
EVELETH        MOSUNNY   72  32  23 SW7       29.72F
DULUTH HARBOR    N/A     45  39  81 N5        29.76F
TWO HARBORS    SUNNY     68  48  49 E5        29.73F
SILVER BAY     SUNNY     63  45  51 CALM      29.74F
GRAND MARAIS     N/A     44  37  76 NE6       29.78S
G MARAIS ARPRT PTSUNNY   57  41  54 CALM      29.79F
$$
MNZ029>031-032-039>041-046>048-054>057-064-030100-
   West Central Minnesota

CITY           SKY/WX    TMP DP  RH WIND       PRES   REMARKS
FERGUS FALLS   MOSUNNY   81  41  24 S15       29.61S
WHEATON        MOSUNNY   81  39  22 S17G23    29.61F
MORRIS         SUNNY     82  39  21 S20       29.63F
ALEXANDRIA     MOSUNNY   78  37  22 S13       29.68F
ELBOW LAKE     FAIR      79  40  24 S17       29.62F
WADENA         PTSUNNY   75  41  29 S13       29.66F
GLENWOOD       SUNNY     81  37  21 S14       29.69F
APPLETON       SUNNY     82  37  20 S9        29.65F
BENSON         SUNNY     82  34  17 SW12G17   29.66F
ORTONVILLE     SUNNY     82  41  23 S10G21    29.64F
MADISON        SUNNY     82  36  18 S17       29.66F
WILLMAR          N/A     82  39  21 S7        29.69F
$$
MNZ033>034-036-042>043-049>051-058-059-030100-
   Central Minnesota

CITY           SKY/WX    TMP DP  RH WIND       PRES   REMARKS
ST CLOUD       SUNNY     77  42  28 S15G21    29.70F
6HR MIN TEMP:  75; 6HR MAX TEMP:  79;

SAUK CENTRE    FAIR      79  40  24 S12       29.69F
PAYNESVILLE    SUNNY     77  36  22 SE8       29.70F
AITKIN         SUNNY     77  34  20 S10       29.69F
PINE RIVER     MOSUNNY   75  45  33 S12       29.72F
BRAINERD       SUNNY     76  40  27 S14G24    29.70F
STAPLES        SUNNY     75  37  25 S13       29.68F
LONG PRAIRIE   FAIR      77  41  27 SE14      29.69F
LITTLE FALLS   SUNNY     77  34  20 S10       29.70F
LITCHFIELD     SUNNY     81  36  19 CALM      29.71F
BUFFALO        SUNNY     78  41  26 SE7       29.72F
MAPLE LAKE     SUNNY     79  46  31 S3        29.72F
$$
MNZ037-044-045-052-053-030100-
   East Central Minnesota

CITY           SKY/WX    TMP DP  RH WIND       PRES   REMARKS
PRINCETON      SUNNY     79  43  27 S9        29.72F
MORA           SUNNY     75  41  29 S5        29.74F
CAMBRIDGE      SUNNY     81  54  39 S12G17    29.71F
RUSH CITY      SUNNY     76  42  29 S8        29.73F
MOOSE LAKE     SUNNY     75  41  29 SW12      29.72S
HINCKLEY       FAIR      75  43  31 S10       29.73F
CLOQUET        SUNNY     75  30  19 S10       29.74S
MCGREGOR       SUNNY     73  39  29 S10G17    29.72F
$$
MNZ071>073-080-081-089-090-097-098-030100-
   Southwest Minnesota

CITY           SKY/WX    TMP DP  RH WIND       PRES   REMARKS
MONTEVIDEO     SUNNY     82  39  21 W12       29.67F
GRANITE FALLS  SUNNY     83  38  20 S14       29.69F
CANBY          SUNNY     81  38  21 SW14G20   29.69F
MARSHALL       SUNNY     81  43  26 SW22      29.70F
REDWOOD FALLS  PTSUNNY   82  43  25 SW17      29.69F
OLIVIA         SUNNY     79  37  22 SW16      29.69F
PIPESTONE      SUNNY     79  41  25 S20       29.74F
WINDOM         SUNNY     77  45  31 S14G23    29.76F
WORTHINGTON    SUNNY     75  48  38 S17       29.77F
JACKSON        SUNNY     77  45  31 S15       29.79F
TRACY          SUNNY     80  44  28 S15G22    29.73F
SLAYTON        SUNNY     77  42  28 S15G21    29.75F
$$
MNZ065>067-074>077-082>085-091>093-030100-
   South Central Minnesota

CITY           SKY/WX    TMP DP  RH WIND       PRES   REMARKS
MANKATO        MOSUNNY   70  46  43 SW29G35   29.75S THUNDER
NEW ULM        MOSUNNY   79  46  31 SW16G25   29.73S
FAIRMONT       MOSUNNY   75  36  23 S20G29    29.77F
GLENCOE        SUNNY     81  43  26 S5        29.71F
FARIBAULT      SUNNY     79  43  27 S10       29.76F
OWATONNA       SUNNY     77  46  33 S15       29.78S
WASECA         SUNNY     73  46  38 SW18G24   29.79S
ALBERT LEA     SUNNY     75  46  35 SW10G17   29.80F
$$
MNZ078>079-086>088-094>096-030100-
   Southeast Minnesota

CITY           SKY/WX    TMP DP  RH WIND       PRES   REMARKS
ROCHESTER      SUNNY     74  48  39 S23G30    29.82S
6HR MIN TEMP:  74; 6HR MAX TEMP:  80;

RED WING       SUNNY     81  37  21 W10       29.75F
STANTON        SUNNY     78  42  27 SW6       29.74F
DODGE CENTER   MOSUNNY   75  46  35 SW20G25   29.80S
WINONA         MOSUNNY   77  46  33 SW12      29.81S
AUSTIN         MOSUNNY   72  50  46 S17G24    29.81F
PRESTON        SUNNY     72  48  42 S18G31    29.85S
$$
ABBREVIATIONS USED IN REMARKS
   TC - TEMPERATURES IN CELSIUS
  WCI - WIND CHILL INDEX
   HX - HEAT INDEX
  VSB - VISIBILITY
$$



USA.gov is the U.S. government's official web portal to all federal, state and local government web resources and services.